562  
ASUS44 KSJT 211310  
RWRSJT  
WEST CENTRAL TEXAS REGIONAL WEATHER ROUNDUP  
NATIONAL WEATHER SERVICE SAN ANGELO TX  
800 AM CDT SUN OCT 21 2018  
 
NOTE: "FAIR" INDICATES FEW OR NO CLOUDS BELOW 12,000 FEET WITH NO  
SIGNIFICANT WEATHER AND/OR S TO VISIBILITY
.  
 
TXZ049-054-064>066-071>073-076>078-098-099-113-114-127-128-139-140-  
154-155-168>170-211400   
..LOCATIONS ACROSS WEST CENTRAL TEXAS
 
 
 
CITY SKY/WX TMP DP RH WIND PRES REMARKS
 
SAN ANGELO PTCLDY 46 43 89 NE6 30.35R  
ABILENE CLEAR 43 43 100 S3 30.36S  
DYESS AFB CLEAR 44 38 82 SW3 30.36R HAZE  
JUNCTION NOT AVBL  
SWEETWATER CLEAR 48 42 78 CALM 30.40R  
BROWNWOOD CLEAR 45 43 93 CALM 30.34S  
COLEMAN SUNNY 47 42 83 N3 30.35S  
SONORA MOCLDY 52 46 82 N5 30.39R  
OZONA FAIR 52 46 82 CALM 30.38R  
BRADY PTCLDY 45 43 93 N5 30.35R  

 
 
TEXAS PANHANDLE/OKLAHOMA PANHANDLE  
 
CITY SKY/WX TMP DP RH WIND PRES REMARKS
 
AMARILLO CLOUDY 38 35 89 SW9 30.37S WCI 31  
BORGER CLEAR 47 38 71 SW8 30.35F  
CANADIAN CLEAR 38 37 97 CALM 30.35S  
DALHART CLEAR 40 36 86 SW10 30.35F WCI 33  
DUMAS SUNNY 41 37 84 SW9 30.35F WCI 35  
GUYMON NOT AVBL  
HEREFORD CLOUDY 39 38 94 W3 30.40S  
PAMPA SUNNY 46 38 75 SW8 30.36S  
PERRYTON CLEAR 45 40 83 SW8 30.32S  

 
 
SOUTHERN PANHANDLE/SOUTH PLAINS/ROLLING PLAINS  
 
CITY SKY/WX TMP DP RH WIND PRES REMARKS
 
LUBBOCK PTCLDY 43 39 86 CALM 30.38S  
SNYDER CLEAR 46 39 78 N6 30.38S  
CHILDRESS CLEAR 47 42 83 N3 30.37S  
SEMINOLE CLOUDY 49 45 84 CALM 30.43S  

 
 
PERMIAN BASIN  
 
CITY SKY/WX TMP DP RH WIND PRES REMARKS
 
MIDLAND CLEAR 47 45 93 N3 30.38R  
ODESSA CLOUDY 48 45 89 NE8 30.38S  
WINK CLOUDY 53 49 86 NE3 30.36R  

 
 
FAR WEST/SOUTHWEST MOUNTAINS/TRANS PECOS  
 
CITY SKY/WX TMP DP RH WIND PRES REMARKS
 
ALPINE CLOUDY 51 51 99 E5 30.43S  
DRYDEN N/A 56 50 80 N7 30.33R  
EL PASO MOCLDY 57 46 66 E6 30.32R  
FORT STOCKTON CLOUDY 54 51 90 E3 30.36R  
GUADALUPE PASS NOT AVBL  
MARFA N/A 50 48 93 NE6 30.39R  
PECOS CLOUDY 54 51 89 E5 30.37R  

 
 
DALLAS/FORT WORTH METROPLEX  
 
CITY SKY/WX TMP DP RH WIND PRES REMARKS
 
DFW AIRPORT PTCLDY 50 47 89 N6 30.32S  
FTW MEACHAM PTCLDY 49 45 86 CALM 30.34R  
DAL-EXECUTIVE CLEAR 49 46 90 N5 30.33S  
GRAND PRAIRIE CLEAR 48 48 100 N3 30.36R  
ADDISON CLEAR 52 45 76 NE6 30.34S  
MESQUITE SUNNY 52 46 82 CALM 30.34S  
LANCASTER SUNNY 52 46 79 CALM 30.34F  

 
 
NORTH CENTRAL TEXAS  
 
CITY SKY/WX TMP DP RH WIND PRES REMARKS
 
SHRMAN/DENISON MOSUNNY 48 44 87 CALM 30.37R  
GAINESVILLE PTCLDY 46 43 91 CALM 30.37S  
BRIDGEPORT MOSUNNY 45 45 100 CALM 30.38R  
DENTON PTCLDY 47 44 90 N6 30.35R  
WAXAHACHIE SUNNY 51 46 83 N3 30.35S  
GRANBURY SUNNY 47 45 93 CALM 30.36S  

 
 
WESTERN NORTH TEXAS  
 
CITY SKY/WX TMP DP RH WIND PRES REMARKS
 
WICHITA FALLS CLEAR 45 42 89 N6 30.35S  
VERNON CLOUDY 47 45 92 CALM 30.38R  
BRECKENRIDGE NOT AVBL  
COMANCHE CLEAR 49 46 92 MISG 30.35R  

 
 
CENTRAL AND SOUTH CENTRAL TEXAS  
 
CITY SKY/WX TMP DP RH WIND PRES REMARKS
 
AUSTIN/BERGSTM MOCLDY 57 48 72 NE14 30.28R  
WACO CLEAR 48 45 89 N6 30.32S  
HILLSBORO SUNNY 52 47 82 N5 30.32F  
TEMPLE CLEAR 50 47 89 N7 30.32R  
KILLEEN-GRAY CLEAR 48 44 86 N12 30.30R  
FORT HOOD CLEAR 51 44 76 N6 30.27R  
GEORGETOWN CLEAR 53 46 77 N6 30.33R  
LAGO VISTA FAIR 52 49 89 NE9 30.30S  
SAN MARCOS PTCLDY 56 49 77 N14 N/A  
NEW BRAUNFELS PTCLDY 58 48 69 N13 30.26R  
RANDOLPH AFB PTCLDY 59 47 65 N10 30.27R  
SAN ANTONIO MOCLDY 58 47 66 N9 30.28R  
STINSON MOCLDY 62 46 55 NE7 30.25R  
PLEASANTON NOT AVBL  
LA GRANGE PTCLDY 57 53 85 N5 30.24S  
GIDDINGS PTSUNNY 53 48 84 NE3 30.28S  

 
 
EAST TEXAS  
 
CITY SKY/WX TMP DP RH WIND PRES REMARKS
 
PARIS CLOUDY 46 43 89 NE7 30.37R  
CLARKSVILLE NOT AVBL  
TYLER CLEAR 51 44 77 NE7 30.33R  
LONGVIEW FAIR 51 45 79 NE7 30.33R  
PALESTINE SUNNY 53 45 73 NE7 30.33R  
NACOGDOCHES N/A 52 45 77 NE5 30.31R  

 
 
TEXAS HILL COUNTRY AND EDWARDS PLATEAU  
 
CITY SKY/WX TMP DP RH WIND PRES REMARKS
 
LLANO MOSUNNY 46 45 93 CALM 30.36R  
HORSESHOE BAY FAIR 52 47 85 CALM 30.32S  
KERRVILLE CLOUDY 54 46 75 CALM 30.33R  
FREDERICKSBRG CLOUDY 53 43 69 N3 30.33R  
ROCKSPRINGS MOSUNNY 54 46 76 VRB7 30.37R  
HONDO PTCLDY 59 50 72 N9 30.28R  
UVALDE CLOUDY 59 50 73 N6 30.29S  
DEL RIO CLOUDY 61 53 75 N5 30.30R  

 
 
SOUTHEAST TEXAS  
 
CITY SKY/WX TMP DP RH WIND PRES REMARKS
 
COLLEGE STN CLEAR 56 49 77 NE10 30.27S  
CALDWELL SUNNY 53 49 85 N5 30.29R  
CROCKETT N/A 50 46 87 NE5 30.33R  
BRENHAM CLEAR 56 52 86 N3 30.28R  
HUNTSVILLE FAIR 52 49 89 N3 30.28R  
CONROE FAIR 55 54 96 N3 30.26S  
HOUSTON BUSH FAIR 59 54 83 NE9 30.24R  
HOUSTON HOBBY FAIR 61 52 72 NE13 30.23R  
PERLAND FAIR 61 54 77 NE7 30.24R  
WHARTON FAIR 58 55 87 N6 30.22S  

 
 
THE UPPER TEXAS COAST  
 
CITY SKY/WX TMP DP RH WIND PRES REMARKS
 
ORANGE FAIR 58 55 89 N9G16 30.24R  
PORT ARTHUR FAIR 60 52 74 N12 30.21R  
GALVESTON MOCLDY 65 56 72 NE20G26 30.21R  
ANGLETON FAIR 63 53 70 NE13 30.20R  
BAY CITY FAIR 63 57 82 NE8G21 30.19S  

 
 
TEXAS COASTAL BEND, RIO GRANDE PLAINS DEEP SOUTH TEXAS  
 
CITY SKY/WX TMP DP RH WIND PRES REMARKS
 
VICTORIA FAIR 61 55 81 NE10 30.21R  
BEEVILLE CLOUDY 63 57 83 NE9G16 30.20S  
ROCKPORT CLOUDY 64 60 87 N12G21 30.18R  
PORT ARANSAS CLOUDY 65 61 84 N18 30.18S  
PORT LAVACA NOT AVBL  
CORPUS CHRISTI CLOUDY 65 58 78 NE20G25 30.18R  
KINGSVILLE NAS CLOUDY 65 60 84 N13 30.18R  
COTULLA CLOUDY 63 54 72 NE8 30.25R  
LAREDO CLOUDY 65 58 78 N9G16 30.23R  
BROWNSVILLE LGT RAIN 69 69 100 NW14 30.10R  
PORT ISABEL CLOUDY 69 66 90 N16G23 30.08S FOG  
HEBBRONVILLE CLOUDY 61 58 87 CALM 30.22R  
MCALLEN CLOUDY 66 65 96 NW12 30.17R FOG  
WESLACO NOT AVBL  
FALFURRIAS CLOUDY 64 61 89 N12 30.18R  
EDINBURG CLOUDY 66 63 91 N10 30.16S  

 
 
 
CLICK HERE TO GO TO PREVIOUS BULLETINS.

The Nexlab TX Page Main Text Page